Location: Nag� el Ma?a??a
(24.0667°N, 32.8833°E)
Time: 17:05:35
(UTC+00:00)

Meteor 1-27 Rocket - Pass Details

Date: 25 September 2021
Orbit: 830 x 910 km, 81.3° (Epoch: 16 October)

Event Time Altitude Azimuth Distance (km) Brightness Sun altitude
Exits shadow 02:24:22 16° 216° (SW) 2,175 5.4 -17.6°
Maximum altitude 02:28:41 40° 280° (W) 1,299 4.2 -16.7°
Drops below altitude 10° 02:34:11 10° 348° (NNW) 2,587 6.2 -15.4°
Sets 02:36:50 0° 356° (N) 3,535 7.0 -14.8°
